Location: Rogers' Astrophysics Observatory
(34.4289°N, 82.8708°W)
Time: 18:29:54
(UTC-05:00)

Envisat - Visible Passes

Search period start: 14 November 2018 00:00
Search period end: 24 November 2018 00:00
Orbit: 764 x 766 km, 98.2° (Epoch: 14 November)

Date Brightness Start Highest point End Pass type
(mag) Time Alt. Az. Time Alt. Az. Time Alt. Az.
14 Nov 2.8 19:26:30 10° SSE 19:31:34 81° ENE 19:36:40 10° N visible
15 Nov 3.5 18:53:51 30° E 18:54:59 34° ENE 18:59:32 10° N visible
15 Nov 5.1 20:30:04 10° SSW 20:34:05 23° W 20:37:59 10° NW visible
16 Nov 4.5 18:16:53 13° E 18:18:36 15° ENE 18:21:27 10° NNE visible
16 Nov 3.6 19:52:10 10° S 19:57:07 54° W 20:02:06 10° NNW visible
17 Nov 2.9 19:15:25 10° SSE 19:20:24 63° ENE 19:25:26 10° N visible
17 Nov 5.9 21:00:22 12° W 21:00:22 12° W 21:01:38 10° WNW visible
18 Nov 3.8 18:43:09 26° E 18:43:53 27° ENE 18:48:06 10° NNE visible
18 Nov 4.8 20:18:23 10° SSW 20:23:22 28° W 20:27:10 10° NW visible
19 Nov 4.7 18:06:09 11° E 18:07:34 12° ENE 18:09:18 10° NE visible
19 Nov 3.2 19:40:52 10° S 19:46:22 66° WNW 19:51:00 10° NNW visible
20 Nov 3.1 19:04:24 10° SSE 19:09:21 48° ENE 19:14:09 10° N visible
20 Nov 5.7 20:49:33 15° WNW 20:49:33 15° WNW 20:51:32 10° NW visible
21 Nov 4.1 18:32:19 21° ENE 18:32:47 21° ENE 18:36:33 10° NNE visible
21 Nov 4.4 20:06:50 10° SSW 20:12:32 34° WNW 20:16:13 10° NNW visible
22 Nov 3.1 19:29:40 10° SSE 19:35:29 66° NNW 19:39:50 10° NNW visible
23 Nov 3.4 18:53:29 10° SE 18:58:25 37° ENE 19:02:47 10° N visible
23 Nov 5.4 20:33:29 10° SW 20:38:37 18° WNW 20:40:57 10° NW visible
